FW4751 Weather Reports


Display with metric or nautical units.
time (UTC)temp
F
wind
direction
speed
MPH
gust
MPH
rain 1hr
in
rain 24hr
in
rain mn
in
humidity
%
barometer
mb
20260905234523 76 338 2.0 6.0 0.00 0.00 0.00 48 1013.6
20260905234008 76 45 3.0 8.0 0.00 0.00 0.00 48 1013.6
20260905233525 76 45 3.0 7.0 0.00 0.00 0.00 48 1013.7
20260905233005 76 45 3.0 8.0 0.00 0.00 0.00 48 1013.7
20260905232505 76 23 3.0 8.0 0.00 0.00 0.00 47 1013.6
20260905232010 76 0 2.0 6.0 0.00 0.00 0.00 46 1013.6
20260905231505 76 45 3.0 8.0 0.00 0.00 0.00 46 1013.6
20260905231005 76 45 3.0 8.0 0.00 0.00 0.00 46 1013.6
20260905230505 77 45 3.0 8.0 0.00 0.00 0.00 45 1013.7
20260905230003 77 23 3.0 9.0 0.00 0.00 0.00 45 1013.8
20260905225510 78 23 3.0 10.0 0.00 0.00 0.00 44 1013.9
20260905225010 78 23 3.0 9.0 0.00 0.00 0.00 44 1013.9
20260905224510 78 0 3.0 8.0 0.00 0.00 0.00 44 1014.1
20260905224009 78 23 3.0 8.0 0.00 0.00 0.00 45 1013.9
20260905223525 77 23 3.0 8.0 0.00 0.00 0.00 46 1013.9
20260905223009 77 45 4.0 10.0 0.00 0.00 0.00 48 1013.9
20260905222525 76 45 3.0 7.0 0.00 0.00 0.00 50 1013.9
20260905222010 76 45 3.0 8.0 0.00 0.00 0.00 52 1013.9
20260905221529 75 45 3.0 8.0 0.00 0.00 0.00 53 1014.0
20260905221025 75 45 3.0 7.0 0.00 0.00 0.00 54 1014.0
20260905220505 74 23 4.0 8.0 0.00 0.00 0.00 53 1014.0
20260905220009 74 23 4.0 10.0 0.00 0.00 0.00 51 1014.1
20260905215509 74 23 3.0 8.0 0.00 0.00 0.00 51 1014.2
20260905215009 74 23 3.0 8.0 0.00 0.00 0.00 53 1014.2
20260905214509 73 338 3.0 8.0 0.00 0.00 0.00 55 1014.3
20260905214010 73 23 4.0 10.0 0.00 0.00 0.00 55 1014.4
20260905213509 73 45 3.0 8.0 0.00 0.00 0.00 52 1014.3
20260905213025 73 338 3.0 7.0 0.00 0.00 0.00 49 1014.3
20260905212510 74 23 3.0 7.0 0.00 0.00 0.00 49 1014.4
20260905212009 74 45 2.0 5.0 0.00 0.00 0.00 51 1014.3
20260905211505 74 338 2.0 7.0 0.00 0.00 0.00 49 1014.5
20260905211005 74 315 2.0 6.0 0.00 0.00 0.00 49 1014.4
20260905210504 74 0 3.0 8.0 0.00 0.00 0.00 49 1014.4
20260905210010 74 45 2.0 7.0 0.00 0.00 0.00 49 1014.5
20260905205504 74 23 3.0 8.0 0.00 0.00 0.00 50 1014.4
20260905205009 74 0 3.0 7.0 0.00 0.00 0.00 50 1014.5
20260905204510 74 45 2.0 5.0 0.00 0.00 0.00 57 1014.4
20260905204010 73 0 2.0 6.0 0.00 0.00 0.00 56 1014.4
20260905203505 73 338 2.0 7.0 0.00 0.00 0.00 54 1014.4
20260905203029 73 45 3.0 7.0 0.00 0.00 0.00 53 1014.5
20260905202505 74 45 3.0 7.0 0.00 0.00 0.00 52 1014.4
20260905202009 74 45 2.0 6.0 0.00 0.00 0.00 54 1014.5
20260905201505 74 23 3.0 6.0 0.00 0.00 0.00 53 1014.5
20260905201004 74 45 2.0 7.0 0.00 0.00 0.00 55 1014.5
20260905200509 74 45 2.0 7.0 0.00 0.00 0.00 57 1014.5
20260905200009 73 45 2.0 5.0 0.00 0.00 0.00 55 1014.5
20260905195510 73 45 2.0 5.0 0.00 0.00 0.00 56 1014.5
20260905195010 73 45 2.0 5.0 0.00 0.00 0.00 56 1014.8
20260905194504 74 23 2.0 5.0 0.00 0.00 0.00 57 1014.9
20260905194010 74 45 2.0 4.0 0.00 0.00 0.00 57 1014.9
20260905193504 74 45 2.0 4.0 0.00 0.00 0.00 56 1015.0
20260905193005 74 45 2.0 4.0 0.00 0.00 0.00 57 1015.0
20260905192529 74 0 2.0 5.0 0.00 0.00 0.00 57 1015.1
20260905192009 74 45 2.0 6.0 0.00 0.00 0.00 58 1015.1
20260905191509 74 23 2.0 6.0 0.00 0.00 0.00 59 1015.1
20260905191010 74 338 2.0 5.0 0.00 0.00 0.00 57 1015.2
20260905190550 74 45 2.0 4.0 0.00 0.00 0.00 57 1015.2
20260905190009 74 338 1.0 4.0 0.00 0.00 0.00 57 1015.1
20260905185509 73 45 1.0 3.0 0.00 0.00 0.00 57 1015.2
20260905185004 73 45 1.0 4.0 0.00 0.00 0.00 56 1015.3
20260905184504 73 45 1.0 4.0 0.00 0.00 0.00 57 1015.4
20260905184009 73 45 1.0 4.0 0.00 0.00 0.00 57 1015.4
20260905183509 73 45 2.0 5.0 0.00 0.00 0.00 57 1015.4
20260905183025 73 45 1.0 4.0 0.00 0.00 0.00 56 1015.4
20260905182504 73 45 1.0 3.0 0.00 0.00 0.00 58 1015.2
20260905182009 73 23 1.0 3.0 0.00 0.00 0.00 58 1015.4
20260905181509 73 45 2.0 4.0 0.00 0.00 0.00 60 1015.3
20260905181009 73 113 1.0 3.0 0.00 0.00 0.00 61 1015.3
20260905180504 73 68 1.0 3.0 0.00 0.00 0.00 61 1015.3
20260905180010 72 90 1.0 3.0 0.00 0.00 0.00 62 1015.4
20260905175524 72 45 1.0 2.0 0.00 0.00 0.00 63 1015.5
20260905175004 71 135 1.0 2.0 0.00 0.00 0.00 63 1015.3
20260905174504 71 113 1.0 4.0 0.00 0.00 0.00 64 1015.3
20260905174004 70 135 1.0 4.0 0.00 0.00 0.00 65 1015.4
20260905173509 70 45 1.0 2.0 0.00 0.00 0.00 66 1015.3
20260905173009 69 90 1.0 2.0 0.00 0.00 0.00 66 1015.4
20260905172509 69 45 1.0 3.0 0.00 0.00 0.00 67 1015.4
20260905172010 69 45 1.0 3.0 0.00 0.00 0.00 67 1015.3
20260905171524 69 45 1.0 3.0 0.00 0.00 0.00 67 1015.3
20260905171024 69 45 1.0 4.0 0.00 0.00 0.00 67 1015.2
20260905170504 69 135 1.0 4.0 0.00 0.00 0.00 68 1015.1
20260905170004 68 45 1.0 3.0 0.00 0.00 0.00 69 1015.1
20260905165504 68 45 1.0 2.0 0.00 0.00 0.00 68 1015.3
20260905165004 68 45 1.0 3.0 0.00 0.00 0.00 68 1015.2
20260905164504 68 135 1.0 3.0 0.00 0.00 0.00 68 1015.2
20260905164009 68 0.0 2.0 0.00 0.00 0.00 69 1015.1
20260905163504 67 135 1.0 3.0 0.00 0.00 0.00 70 1015.2
20260905163004 67 135 1.0 3.0 0.00 0.00 0.00 71 1015.1
20260905162504 66 135 1.0 2.0 0.00 0.00 0.00 73 1015.2
20260905162004 65 0.0 1.0 0.00 0.00 0.00 74 1015.2
20260905161504 65 270 1.0 1.0 0.00 0.00 0.00 75 1015.3
20260905161024 64 0 1.0 2.0 0.00 0.00 0.00 77 1015.3
20260905160504 63 270 1.0 2.0 0.00 0.00 0.00 78 1015.3
20260905160004 63 135 1.0 2.0 0.00 0.00 0.00 80 1015.2
20260905155504 62 113 1.0 2.0 0.00 0.00 0.00 81 1015.2
20260905155024 61 315 1.0 2.0 0.00 0.00 0.00 82 1015.1
20260905154504 60 270 1.0 2.0 0.00 0.00 0.00 84 1015.3
20260905154004 59 270 1.0 1.0 0.00 0.00 0.00 85 1015.2
20260905153504 58 0.0 2.0 0.00 0.00 0.00 87 1015.1
20260905153029 57 0.0 1.0 0.00 0.00 0.00 87 1015.2
20260905152504 56 0.0 2.0 0.00 0.00 0.00 88 1015.2
20260905152004 55 0.0 1.0 0.00 0.00 0.00 88 1015.2
20260905151509 55 0.0 1.0 0.00 0.00 0.00 88 1015.2
20260905151024 54 0.0 2.0 0.00 0.00 0.00 89 1015.2
20260905150504 53 0.0 1.0 0.00 0.00 0.00 89 1015.0
20260905150029 53 0.0 1.0 0.00 0.00 0.00 89 1015.1
20260905145506 52 0.0 1.0 0.00 0.00 0.00 89 1015.0
20260905145004 51 0.0 1.0 0.00 0.00 0.00 89 1015.0
20260905144509 51 0.0 1.0 0.00 0.00 0.00 89 1015.0
20260905144009 51 0.0 1.0 0.00 0.00 0.00 88 1014.9
20260905143504 50 0.0 1.0 0.00 0.00 0.00 88 1015.1
20260905143008 50 0.0 1.0 0.00 0.00 0.00 87 1015.1
20260905142504 50 0.0 1.0 0.00 0.00 0.00 87 1015.0
20260905142004 50 0.0 1.0 0.00 0.00 0.00 87 1015.1
20260905141508 50 0.0 1.0 0.00 0.00 0.00 87 1015.0
20260905141009 50 0.0 1.0 0.00 0.00 0.00 87 1015.0
20260905140508 49 0.0 1.0 0.00 0.00 0.00 86 1014.9
20260905140004 50 0.0 1.0 0.00 0.00 0.00 86 1014.9
20260905135504 49 0.0 1.0 0.00 0.00 0.00 86 1014.9
20260905135003 49 0.0 1.0 0.00 0.00 0.00 86 1014.9
20260905134508 49 0.0 1.0 0.00 0.00 0.00 86 1014.9
20260905134003 49 0.0 1.0 0.00 0.00 0.00 86 1014.7
20260905133504 49 0.0 0.0 0.00 0.00 0.00 86 1014.7
20260905133009 49 0.0 1.0 0.00 0.00 0.00 85 1014.6
20260905132504 49 0.0 1.0 0.00 0.00 0.00 85 1014.7
20260905132008 49 0.0 1.0 0.00 0.00 0.00 85 1014.7
20260905131503 49 0.0 1.0 0.00 0.00 0.00 85 1014.8
20260905131003 50 0.0 1.0 0.00 0.00 0.00 85 1014.8
20260905130503 50 0.0 1.0 0.00 0.00 0.00 84 1014.8
20260905130004 50 0.0 1.0 0.00 0.00 0.00 84 1014.8
20260905125504 50 0.0 1.0 0.00 0.00 0.00 84 1014.8
20260905125004 50 0.0 1.0 0.00 0.00 0.00 84 1014.8
20260905124524 50 0.0 1.0 0.00 0.00 0.00 84 1014.9
20260905124008 50 0.0 1.0 0.00 0.00 0.00 84 1014.9
20260905123503 50 0.0 1.0 0.00 0.00 0.00 84 1014.9
20260905123008 50 0.0 1.0 0.00 0.00 0.00 84 1014.8
20260905122508 50 0.0 1.0 0.00 0.00 0.00 84 1014.8
20260905122008 50 0.0 1.0 0.00 0.00 0.00 84 1014.8
20260905121509 50 0.0 1.0 0.00 0.00 0.00 84 1014.9
20260905121008 50 0.0 1.0 0.00 0.00 0.00 83 1014.8
20260905120508 50 0.0 1.0 0.00 0.00 0.00 83 1014.8
20260905120009 50 0.0 1.0 0.00 0.00 0.00 83 1014.9
20260905115508 51 0.0 1.0 0.00 0.00 0.00 83 1014.8
20260905115003 51 0.0 1.0 0.00 0.00 0.00 83 1014.8
20260905114528 51 0.0 1.0 0.00 0.00 0.00 83 1014.9
20260905114009 51 0.0 1.0 0.00 0.00 0.00 83 1014.9
20260905113504 51 315 1.0 1.0 0.00 0.00 0.00 83 1014.9
20260905113008 51 0.0 1.0 0.00 0.00 0.00 83 1014.9
20260905112508 51 0.0 1.0 0.00 0.00 0.00 83 1015.0
20260905112008 51 0.0 1.0 0.00 0.00 0.00 83 1015.1
20260905111503 51 0.0 1.0 0.00 0.00 0.00 83 1015.0
20260905111008 51 0.0 1.0 0.00 0.00 0.00 83 1015.1
20260905110503 51 0.0 1.0 0.00 0.00 0.00 83 1015.1
20260905110008 51 0.0 1.0 0.00 0.00 0.00 83 1015.1
20260905105508 51 0.0 1.0 0.00 0.00 0.00 82 1015.1
20260905105008 51 0.0 1.0 0.00 0.00 0.00 82 1015.2
20260905104508 51 0.0 1.0 0.00 0.00 0.00 82 1015.1
20260905104008 51 0.0 1.0 0.00 0.00 0.00 82 1015.2
20260905103503 51 0.0 1.0 0.00 0.00 0.00 82 1015.1
20260905103003 51 0.0 1.0 0.00 0.00 0.00 82 1015.1
20260905102503 51 0.0 1.0 0.00 0.00 0.00 82 1015.1
20260905102003 51 0.0 1.0 0.00 0.00 0.00 82 1015.3
20260905101508 51 0.0 1.0 0.00 0.00 0.00 82 1015.3
20260905101003 51 0.0 1.0 0.00 0.00 0.00 82 1015.4
20260905100523 51 0.0 1.0 0.00 0.00 0.00 82 1015.3
20260905100028 51 0.0 1.0 0.00 0.00 0.00 82 1015.4
20260905095523 51 0.0 1.0 0.00 0.00 0.00 82 1015.4
20260905095008 51 0.0 1.0 0.00 0.00 0.00 81 1015.3
20260905094508 51 0.0 1.0 0.00 0.00 0.00 81 1015.3
20260905094004 51 0.0 1.0 0.00 0.00 0.00 81 1015.2
20260905093503 52 0.0 1.0 0.00 0.00 0.00 81 1015.3
20260905093003 52 0.0 1.0 0.00 0.00 0.00 81 1015.4
20260905092509 52 0.0 1.0 0.00 0.00 0.00 81 1015.4
20260905092008 52 0.0 1.0 0.00 0.00 0.00 81 1015.3
20260905091503 52 0.0 1.0 0.00 0.00 0.00 81 1015.4
20260905091010 52 0.0 1.0 0.00 0.00 0.00 81 1015.4
20260905090505 52 0.0 1.0 0.00 0.00 0.00 81 1015.4
20260905090005 52 0.0 1.0 0.00 0.00 0.00 81 1015.5
20260905085505 52 0.0 1.0 0.00 0.00 0.00 81 1015.4
20260905085010 53 0.0 1.0 0.00 0.00 0.00 81 1015.4
20260905084505 53 0.0 1.0 0.00 0.00 0.00 81 1015.5
20260905084005 53 0.0 1.0 0.00 0.00 0.00 80 1015.5
20260905083506 53 0.0 1.0 0.00 0.00 0.00 80 1015.5
20260905083010 53 0.0 1.0 0.00 0.00 0.00 80 1015.6
20260905082510 53 0.0 1.0 0.00 0.00 0.00 80 1015.6
20260905082009 53 0.0 1.0 0.00 0.00 0.00 80 1015.6
20260905081505 53 0.0 1.0 0.00 0.00 0.00 80 1015.6
20260905081005 53 0.0 1.0 0.00 0.00 0.00 80 1015.6
20260905080505 54 0.0 1.0 0.00 0.00 0.00 80 1015.6
20260905080004 54 0.0 1.0 0.00 0.00 0.00 80 1015.4
20260905075504 54 0.0 1.0 0.00 0.00 0.00 80 1015.4
20260905075004 54 0.0 0.0 0.00 0.00 0.00 80 1015.4
20260905074509 54 0.0 1.0 0.00 0.00 0.00 80 1015.5
20260905074004 54 0.0 1.0 0.00 0.00 0.00 79 1015.5
20260905073503 55 0.0 1.0 0.00 0.00 0.00 79 1015.5
20260905073008 55 0.0 1.0 0.00 0.00 0.00 79 1015.4
20260905072504 55 0.0 0.0 0.00 0.00 0.00 79 1015.5
20260905072024 55 0.0 1.0 0.00 0.01 0.00 79 1015.4
20260905071509 55 0.0 1.0 0.00 0.01 0.00 79 1015.3
20260905071008 55 0.0 1.0 0.00 0.01 0.00 79 1015.2
20260905070503 55 0.0 1.0 0.00 0.01 0.00 79 1015.3
20260905070005 56 0.0 1.0 0.00 0.01 0.01 78 1015.2
20260905065503 56 0.0 1.0 0.00 0.01 0.01 78 1015.1
20260905065004 56 0.0 1.0 0.00 0.01 0.01 78 1015.1
20260905064529 56 0.0 1.0 0.00 0.01 0.01 77 1015.1
20260905064008 56 0.0 1.0 0.00 0.01 0.01 77 1015.1
20260905063503 57 0.0 1.0 0.00 0.01 0.01 76 1015.0
20260905063009 57 0.0 1.0 0.00 0.01 0.01 76 1015.0
20260905062503 57 0.0 1.0 0.00 0.01 0.01 76 1015.1
20260905062003 57 0.0 1.0 0.00 0.01 0.01 76 1015.0
20260905061508 57 0.0 1.0 0.00 0.01 0.01 76 1015.1
20260905061003 58 0.0 1.0 0.00 0.01 0.01 76 1015.0
20260905060528 58 0.0 1.0 0.00 0.02 0.01 75 1015.1
20260905060003 58 0.0 1.0 0.00 0.02 0.01 75 1015.1
20260905055503 58 0.0 1.0 0.00 0.02 0.01 75 1015.2
20260905055009 58 0.0 1.0 0.00 0.02 0.01 75 1015.2
20260905054504 59 0.0 0.0 0.00 0.02 0.01 74 1015.3
20260905054003 59 0.0 0.0 0.00 0.02 0.01 74 1015.2
20260905053503 59 0.0 1.0 0.00 0.02 0.01 74 1015.2
20260905053028 59 0.0 1.0 0.00 0.02 0.01 73 1015.3
20260905052508 59 0.0 1.0 0.00 0.02 0.01 73 1015.3
20260905052003 60 0.0 1.0 0.00 0.02 0.01 73 1015.3
20260905051504 60 0.0 1.0 0.00 0.02 0.01 72 1015.4
20260905051008 60 0.0 1.0 0.00 0.02 0.01 72 1015.4
20260905050509 60 0.0 1.0 0.00 0.02 0.01 71 1015.4
20260905050008 60 0.0 1.0 0.00 0.02 0.01 71 1015.4
20260905045508 61 0.0 1.0 0.00 0.02 0.01 70 1015.4
20260905045023 61 0.0 1.0 0.00 0.02 0.01 70 1015.5
20260905044508 61 0.0 1.0 0.00 0.02 0.01 69 1015.4
20260905044008 61 0.0 1.0 0.00 0.02 0.01 69 1015.4
20260905043508 62 0.0 2.0 0.00 0.02 0.01 69 1015.4
20260905043003 62 0.0 1.0 0.00 0.02 0.01 69 1015.4
20260905042503 62 0.0 1.0 0.00 0.02 0.01 69 1015.3
20260905042008 62 0.0 1.0 0.00 0.02 0.01 69 1015.3
20260905041508 63 0.0 1.0 0.00 0.02 0.01 68 1015.2
20260905041003 63 0.0 1.0 0.00 0.02 0.01 68 1015.3
20260905040528 63 338 1.0 2.0 0.00 0.02 0.01 68 1015.2
20260905040008 63 23 1.0 2.0 0.00 0.02 0.01 67 1015.0
20260905035508 63 0.0 2.0 0.00 0.02 0.01 67 1015.0
20260905035028 64 0 1.0 3.0 0.00 0.02 0.01 67 1014.8
20260905034508 64 0 1.0 2.0 0.00 0.02 0.01 66 1014.8
20260905034009 64 338 1.0 3.0 0.00 0.02 0.01 65 1014.8
20260905033508 64 338 1.0 2.0 0.00 0.02 0.01 65 1014.7
20260905033008 64 338 1.0 3.0 0.00 0.02 0.01 64 1014.6
20260905032506 65 0 1.0 3.0 0.00 0.02 0.01 63 1014.5
20260905032029 65 315 1.0 3.0 0.00 0.02 0.01 63 1014.5
20260905031503 65 0 1.0 3.0 0.00 0.02 0.01 62 1014.4
20260905031008 66 45 1.0 3.0 0.00 0.02 0.01 61 1014.5
20260905030508 66 338 1.0 3.0 0.00 0.02 0.01 61 1014.3
20260905030008 66 338 1.0 4.0 0.00 0.02 0.01 60 1014.4
20260905025508 66 338 1.0 4.0 0.00 0.02 0.01 59 1014.3
20260905025003 67 338 1.0 4.0 0.00 0.02 0.01 59 1014.4
20260905024503 67 338 1.0 5.0 0.00 0.02 0.01 58 1014.4
20260905024008 67 338 2.0 7.0 0.00 0.02 0.01 57 1014.3
20260905023508 68 338 1.0 5.0 0.00 0.02 0.01 57 1014.3
20260905023003 68 338 1.0 3.0 0.00 0.02 0.01 57 1014.3
20260905022508 68 315 1.0 3.0 0.00 0.02 0.01 57 1014.3
20260905022003 69 0 1.0 2.0 0.00 0.02 0.01 58 1014.2
20260905021503 69 23 2.0 5.0 0.00 0.02 0.01 58 1014.3
20260905021008 69 338 2.0 5.0 0.00 0.02 0.01 58 1014.1
20260905020523 70 23 2.0 7.0 0.00 0.02 0.01 57 1013.9
20260905020008 70 23 2.0 5.0 0.00 0.02 0.01 56 1013.9
20260905015508 70 0 2.0 8.0 0.00 0.02 0.01 54 1014.0
20260905015010 71 23 2.0 4.0 0.00 0.02 0.01 55 1014.0
20260905014505 71 0 2.0 6.0 0.00 0.02 0.01 54 1013.9
20260905014005 71 0 2.0 4.0 0.00 0.02 0.01 53 1014.0
20260905013505 72 0 2.0 7.0 0.00 0.02 0.01 52 1013.9
20260905013030 72 338 2.0 7.0 0.00 0.02 0.01 53 1014.0
20260905012509 72 338 2.0 7.0 0.00 0.02 0.01 53 1013.9
20260905012010 72 338 2.0 5.0 0.00 0.02 0.01 52 1014.0
20260905011505 72 315 2.0 4.0 0.00 0.02 0.01 52 1013.9
20260905011010 72 338 3.0 7.0 0.00 0.02 0.01 51 1013.9
20260905010550 72 338 3.0 8.0 0.00 0.02 0.01 49 1013.9
20260905010009 72 23 3.0 8.0 0.00 0.02 0.01 52 1013.8
20260905005505 73 45 2.0 8.0 0.00 0.02 0.01 51 1013.9
20260905005025 73 23 2.0 7.0 0.00 0.02 0.01 48 1013.9
20260905004505 73 45 2.0 7.0 0.00 0.02 0.01 50 1013.8
20260905004030 73 45 3.0 8.0 0.00 0.02 0.01 51 1013.9
20260905003526 73 45 3.0 7.0 0.00 0.02 0.01 50 1014.0
20260905003009 73 45 3.0 7.0 0.00 0.02 0.01 49 1013.8
20260905002530 73 45 3.0 6.0 0.00 0.02 0.01 48 1013.9
20260905002010 73 23 3.0 7.0 0.00 0.02 0.01 49 1013.8
20260905001510 73 23 3.0 6.0 0.00 0.02 0.01 49 1013.8
20260905001005 73 45 2.0 5.0 0.00 0.02 0.01 50 1013.9
20260905000505 73 45 3.0 7.0 0.00 0.02 0.01 48 1013.9
20260905000010 74 23 3.0 7.0 0.00 0.02 0.01 50 1013.9
20260904235504 74 45 2.0 6.0 0.00 0.02 0.01 50 1013.8
20260904235005 74 23 3.0 7.0 0.00 0.02 0.01 50 1014.0